Location: Peebles
(55.6412°N, 3.1714°W)
Time: 18:35:30
(UTC+01:00)

USA 281 - Pass Details

Date: 28 January 2022
Orbit: 1070 x 1089 km, 106.0° (Epoch: 25 March)

Event Time Altitude Azimuth Distance (km) Brightness Sun altitude
Rises 01:40:19 0° 30° (NNE) 3,906 6.8 -50.0°
Reaches altitude 10° 01:42:59 10° 36° (NE) 2,947 6.0 -49.8°
Enters shadow 01:44:14 16° 41° (NE) 2,517 5.5 -49.7°
